Location: Newark
(49.1000°N, 0.4667°W)
Time: 11:49:14
(UTC+00:00)

Gurwin Techsat 1B - Visible Passes

Search period start: 09 July 2020 00:00
Search period end: 19 July 2020 00:00
Orbit: 811 x 814 km, 98.7° (Epoch: 08 July)

Date Brightness Start Highest point End Pass type
(mag) Time Alt. Az. Time Alt. Az. Time Alt. Az.
09 Jul 10.3 01:03:21 10° NE 01:07:36 24° E 01:11:28 11° SE visible
09 Jul 8.9 02:42:40 10° N 02:47:53 58° WNW 02:52:41 12° SW visible
10 Jul 10.8 00:41:21 10° NE 00:44:25 15° E 00:47:30 10° ESE visible
10 Jul 8.6 02:19:42 10° NNE 02:25:04 86° WNW 02:29:29 15° SSW visible
11 Jul 8.9 01:56:52 10° NNE 02:02:10 63° ESE 02:06:17 17° S visible
12 Jul 9.5 01:34:09 10° NNE 01:39:12 41° E 01:43:05 16° SSE visible
12 Jul 9.6 03:14:17 10° N 03:19:02 34° WNW 03:23:46 10° SW visible
13 Jul 10.1 01:11:37 10° NE 01:16:09 27° E 01:19:54 13° SE visible
13 Jul 9.1 02:51:11 10° N 02:56:19 50° WNW 03:01:05 12° SW visible
14 Jul 10.7 00:49:24 10° NE 00:53:01 18° E 00:56:35 10° SE visible
14 Jul 8.7 02:28:11 10° NNE 02:33:32 75° WNW 02:37:53 16° SSW visible
15 Jul 11.0 00:28:07 10° ENE 00:29:48 11° E 00:31:28 10° ESE visible
15 Jul 8.7 02:05:18 10° NNE 02:10:39 74° ESE 02:14:42 18° S visible
16 Jul 9.3 01:42:32 10° NNE 01:47:43 48° E 01:51:29 18° SSE visible
16 Jul 9.8 03:22:53 10° N 03:27:26 30° WNW 03:31:58 10° WSW visible
17 Jul 9.9 01:19:57 10° NNE 01:24:41 32° E 01:28:17 16° SSE visible
17 Jul 9.3 02:59:43 10° N 03:04:44 43° WNW 03:09:29 11° SW visible
18 Jul 10.5 00:57:35 10° NE 01:01:35 21° E 01:05:04 12° SE visible
18 Jul 8.8 02:36:41 10° N 02:41:58 64° WNW 02:46:17 16° SSW visible
